Orbital elements of FENGYUN 1C DEB
| Launched | 9 May 1999 |
| Flight ended | – |
| Launch site | Taiyuan Space Center, PRC |
| Owner | People's Republic of China |
| NORAD ID | 31440 |
| Date fetched |
Epoch osculation |
Inc. [°] |
Ecc. | RA asc node [hr] |
Arg Peri. [°] |
Mean anom [°] |
Mean motion [rev/day] |
Abs. mag |
| Date fetched |
Epoch osculation |
Inc. [°] |
Ecc. | RA asc node [hr] |
Arg Peri. [°] |
Mean anom [°] |
Mean motion [rev/day] |
Abs. mag |
| 2026 May 08 17:57 | 2026 May 03 16:50:18 | 98.7395 | 0.00358 | 14.6031 | 277.9076 | 81.8047 | 14.38246 | – |
| 2026 May 07 17:58 | 2026 May 03 16:50:18 | 98.7395 | 0.00358 | 14.6031 | 277.9076 | 81.8047 | 14.38246 | – |
| 2026 May 06 17:57 | 2026 May 03 16:50:18 | 98.7395 | 0.00358 | 14.6031 | 277.9076 | 81.8047 | 14.38246 | – |
| 2026 May 05 17:57 | 2026 May 03 16:50:18 | 98.7395 | 0.00358 | 14.6031 | 277.9076 | 81.8047 | 14.38246 | – |
| 2026 May 04 17:57 | 2026 Apr 26 04:30:39 | 98.7386 | 0.00352 | 14.0934 | 301.6091 | 81.8047 | 14.38246 | – |
| 2026 May 03 17:57 | 2026 Apr 26 04:30:39 | 98.7386 | 0.00352 | 14.0934 | 301.6091 | 81.8047 | 14.38246 | – |
| 2026 May 02 17:57 | 2026 Apr 26 04:30:39 | 98.7386 | 0.00352 | 14.0934 | 301.6091 | 81.8047 | 14.38246 | – |
| 2026 May 01 17:56 | 2026 Apr 26 04:30:39 | 98.7386 | 0.00352 | 14.0934 | 301.6091 | 81.8047 | 14.38246 | – |
| 2026 Apr 30 17:56 | 2026 Apr 26 04:30:39 | 98.7386 | 0.00352 | 14.0934 | 301.6091 | 81.8047 | 14.38246 | – |
| 2026 Apr 29 17:57 | 2026 Apr 22 23:42:08 | 98.7380 | 0.00351 | 13.8764 | 311.8056 | 81.8047 | 14.38246 | – |
| 2026 Apr 28 17:56 | 2026 Apr 22 23:42:08 | 98.7380 | 0.00351 | 13.8764 | 311.8056 | 81.8047 | 14.38246 | – |
| 2026 Apr 27 17:58 | 2026 Apr 22 23:42:08 | 98.7380 | 0.00351 | 13.8764 | 311.8056 | 81.8047 | 14.38246 | – |
| 2026 Apr 26 17:58 | 2026 Apr 22 23:42:08 | 98.7380 | 0.00351 | 13.8764 | 311.8056 | 81.8047 | 14.38246 | – |
| 2026 Apr 25 17:58 | 2026 Apr 22 23:42:08 | 98.7380 | 0.00351 | 13.8764 | 311.8056 | 81.8047 | 14.38246 | – |
| 2026 Apr 24 17:59 | 2026 Apr 22 23:42:08 | 98.7380 | 0.00351 | 13.8764 | 311.8056 | 81.8047 | 14.38246 | – |
| 2026 Apr 23 17:57 | 2026 Apr 17 16:47:54 | 98.7383 | 0.00351 | 13.5178 | 328.4085 | 81.8047 | 14.38246 | – |
| 2026 Apr 22 17:57 | 2026 Apr 17 16:47:54 | 98.7383 | 0.00351 | 13.5178 | 328.4085 | 81.8047 | 14.38246 | – |
| 2026 Apr 21 17:57 | 2026 Apr 17 16:47:54 | 98.7383 | 0.00351 | 13.5178 | 328.4085 | 81.8047 | 14.38246 | – |
| 2026 Apr 20 17:57 | 2026 Apr 17 16:47:54 | 98.7383 | 0.00351 | 13.5178 | 328.4085 | 81.8047 | 14.38246 | – |
| 2026 Apr 19 17:58 | 2026 Apr 17 16:47:54 | 98.7383 | 0.00351 | 13.5178 | 328.4085 | 81.8047 | 14.38246 | – |
| 2026 Apr 18 17:56 | 2026 Apr 12 16:34:16 | 98.7369 | 0.00350 | 13.1780 | 344.6075 | 81.8047 | 14.38246 | – |
| 2026 Apr 16 17:57 | 2026 Apr 12 16:34:16 | 98.7369 | 0.00350 | 13.1780 | 344.6075 | 81.8047 | 14.38246 | – |
| 2026 Apr 14 17:57 | 2026 Apr 12 16:34:16 | 98.7369 | 0.00350 | 13.1780 | 344.6075 | 81.8047 | 14.38246 | – |
| 2026 Apr 13 17:57 | 2026 Apr 12 16:34:16 | 98.7369 | 0.00350 | 13.1780 | 344.6075 | 81.8047 | 14.38246 | – |
| 2026 Apr 12 17:57 | 2026 Apr 07 04:39:08 | 98.7372 | 0.00355 | 12.8053 | 1.6272 | 81.8047 | 14.38246 | – |
| 2026 Apr 11 17:57 | 2026 Apr 07 04:39:08 | 98.7372 | 0.00355 | 12.8053 | 1.6272 | 81.8047 | 14.38246 | – |